This is the latest recevied weather packets stored in our database for station/object K6CED. If no packets are shown the sender has not sent any weather packets the latest 10 day(s).
| Time | Temp. | Humidity | Pressure | Rain* | Wind** | Luminosity | Snow |
|---|---|---|---|---|---|---|---|
| 1777527500 | 12.22° C | 88% | 1018.4 hPa | 0 mm | - | 0 W/m² | - |
| 1777527196 | 12.22° C | 87% | 1018.5 hPa | 0 mm | - | 0 W/m² | - |
| 1777526892 | 12.22° C | 86% | 1018.4 hPa | 0 mm | - | 0 W/m² | - |
| 1777526587 | 12.22° C | 85% | 1018.6 hPa | 0 mm | - | 0 W/m² | - |
| 1777526287 | 12.78° C | 84% | 1018.6 hPa | 0 mm | - | 0 W/m² | - |
| 1777525983 | 12.22° C | 84% | 1018.6 hPa | 0 mm | - | 0 W/m² | - |
| 1777525680 | 12.78° C | 83% | 1018.9 hPa | 0 mm | - | 0 W/m² | - |
| 1777525378 | 12.78° C | 83% | 1018.6 hPa | 0 mm | - | 0 W/m² | - |
| 1777525073 | 12.78° C | 84% | 1018.5 hPa | 0 mm | - | 0 W/m² | - |
| 1777524770 | 12.78° C | 83% | 1018.6 hPa | 0 mm | - | 0 W/m² | - |
| 1777524469 | 12.78° C | 82% | 1018.6 hPa | 0 mm | - | 0 W/m² | - |
| 1777524165 | 12.78° C | 81% | 1018.6 hPa | 0 mm | - | 0 W/m² | - |
| 1777523861 | 12.78° C | 81% | 1018.6 hPa | 0 mm | - | 0 W/m² | - |
| 1777523558 | 13.33° C | 81% | 1018.3 hPa | 0 mm | - | 0 W/m² | - |
| 1777523254 | 13.33° C | 81% | 1018.2 hPa | 0 mm | - | 0 W/m² | - |
| 1777522950 | 13.33° C | 80% | 1018.2 hPa | 0 mm | - | 0 W/m² | - |
| 1777522647 | 13.33° C | 79% | 1018.3 hPa | 0 mm | - | 0 W/m² | - |
| 1777522344 | 13.33° C | 77% | 1018.1 hPa | 0 mm | - | 0 W/m² | - |
| 1777522040 | 13.89° C | 78% | 1018.2 hPa | 0 mm | - | 0 W/m² | - |
| 1777521737 | 13.89° C | 77% | 1017.9 hPa | 0 mm | - | 0 W/m² | - |
| 1777521434 | 13.89° C | 76% | 1018.1 hPa | 0 mm | - | 0 W/m² | - |
| 1777521131 | 13.89° C | 76% | 1018 hPa | 0 mm | - | 0 W/m² | - |
| 1777520829 | 13.89° C | 77% | 1017.9 hPa | 0 mm | - | 0 W/m² | - |
| 1777520525 | 13.89° C | 76% | 1017.9 hPa | 0 mm | - | 0 W/m² | - |
| 1777520222 | 14.44° C | 75% | 1018.1 hPa | 0 mm | - | 0 W/m² | - |
* Rain latest hour (hover to see other rain measurements)
** Current wind speed in m/s (hover to see current wind gust speed)